RH
73 71 67 61 55 49 43 36 31 28 25 22 20 20 21 23 25 27 30 36 41 44 46 46 45 45 46 46 48 51 55 59 62 65 69 74 77 80 83 85 86 88 90 90 90 90 90 90 91 92 92 92 92 93 93 94 93 93 92 93 93 92 90 89 90 92 93 93 92 91 93 93 92 91 91 91 92 93 94 94 94 94 94 94 94 94
75 72 67 61 55 49 43 37 33 30 28 24 21 20 21 24 26 28 32 38 43 46 48 48 48 49 50 49 51 53 57 60 63 66 70 74 77 81 85 86 88 90 90 90 91 91 91 91 91 92 92 90 90 91 92 91 91 91 91 91 90 90 89 90 90 90 92 91 92 93 93 92 90 86 85 88 91 92 93 94 94 94 94 94 94 94
76 73 67 62 56 50 44 39 35 32 29 25 22 21 22 25 27 30 35 40 45 48 50 51 52 54 54 53 54 55 59 62 65 68 73 76 80 83 86 88 90 91 90 91 91 91 92 91 90 89 88 87 87 88 88 88 89 89 89 87 88 89 89 90 91 92 92 92 93 93 93 88 84 83 87 89 87 86 89 90 91 92 92 91 92 93
77 73 67 62 56 51 46 41 37 34 30 26 23 21 23 26 30 34 39 45 48 50 51 53 56 58 58 57 57 58 61 64 68 72 76 79 81 85 88 89 90 90 90 90 90 90 90 90 89 87 87 87 87 86 87 89 89 90 91 91 91 92 93 93 93 93 93 94 93 92 92 91 92 92 93 91 88 86 87 86 87 87 87 84 86 89
78 73 67 61 57 53 49 45 41 36 30 26 23 22 24 29 34 39 45 49 51 52 53 55 59 61 62 61 61 62 64 68 71 75 79 81 84 86 89 90 90 90 90 90 90 90 88 87 87 86 87 87 87 87 88 89 90 91 92 92 92 93 93 93 93 93 93 92 92 92 92 92 92 92 91 91 91 91 91 90 90 90 89 86 86 87
78 73 67 63 59 55 52 48 43 37 32 27 24 24 27 34 40 47 51 53 55 56 57 60 62 64 65 65 66 67 69 72 75 78 81 82 84 85 87 88 89 88 86 86 85 84 83 85 85 85 85 86 87 87 89 90 90 91 91 90 91 91 92 91 92 92 92 91 91 91 91 90 91 91 91 92 92 92 93 92 93 93 93 93 93 93
79 74 68 64 61 58 56 51 44 39 35 31 28 28 32 40 48 54 57 59 60 62 64 65 67 68 68 68 69 70 72 75 77 79 80 79 80 81 81 82 82 81 78 78 78 79 80 83 85 85 86 87 87 88 89 90 90 90 91 90 90 89 89 90 91 91 91 91 91 90 89 89 89 90 90 90 90 91 92 92 93 93 93 93 93 93
79 74 69 66 64 61 58 52 45 40 37 35 33 34 38 46 54 60 63 65 65 67 69 71 72 72 71 70 71 73 76 79 81 82 82 80 78 77 75 75 74 73 74 75 77 80 82 84 86 87 89 89 89 89 89 89 89 90 90 90 90 89 89 90 91 91 90 90 90 91 90 89 89 89 88 88 89 90 92 92 92 92 92 92 92 93
80 75 71 68 67 65 62 54 46 40 37 36 37 40 46 54 60 65 68 68 68 69 74 78 78 76 72 70 72 76 81 84 86 86 84 80 77 74 72 72 73 74 76 77 79 81 83 84 86 87 88 89 89 90 89 89 89 89 90 90 90 91 91 91 91 91 91 91 90 90 90 90 91 90 88 87 87 88 90 91 92 92 92 92 92 92
81 76 72 70 69 68 66 57 47 40 36 38 42 48 57 64 69 71 72 69 68 72 80 83 82 79 74 73 75 79 85 87 87 85 82 77 74 72 72 74 76 77 78 79 81 82 82 83 84 85 85 87 88 89 89 90 90 90 90 91 91 90 90 90 90 91 91 90 90 89 89 90 91 90 89 87 87 87 87 88 89 90 92 92 92 93
83 78 74 73 71 70 67 59 49 41 38 42 49 57 65 71 74 75 75 72 73 77 84 85 84 80 77 76 77 80 85 88 87 82 76 72 71 71 74 77 78 79 79 79 80 80 80 81 82 82 82 84 86 88 89 91 91 90 90 90 90 89 90 90 90 90 90 90 89 89 89 90 90 89 89 89 89 88 87 88 88 90 91 92 93 92
85 81 78 76 75 72 68 60 52 46 45 53 61 67 68 68 72 77 81 81 83 85 87 85 83 80 78 78 79 82 86 87 85 79 73 71 73 75 79 81 81 81 81 79 78 77 77 78 78 78 80 82 84 87 89 90 90 90 89 90 90 89 90 89 90 90 91 91 90 89 90 90 90 90 89 90 90 90 89 91 90 90 91 93 93 93
86 83 80 79 78 75 72 66 61 57 55 64 70 74 74 71 75 82 88 89 90 90 89 87 84 81 78 78 81 85 88 86 82 77 75 77 79 81 84 84 83 82 81 81 79 78 76 75 75 75 77 79 83 86 88 89 89 89 88 88 89 89 90 90 91 91 92 91 90 90 90 90 91 91 89 91 91 92 91 92 92 92 92 92 92 93
88 85 84 83 80 77 74 70 65 60 60 64 68 71 73 76 82 88 92 92 92 91 90 88 85 81 77 78 82 86 88 84 81 79 80 81 83 84 85 86 85 84 83 83 82 79 75 74 74 74 74 76 79 82 84 85 86 87 88 89 89 89 89 90 90 91 91 91 91 91 91 91 92 92 92 92 91 90 89 89 91 92 91 86 83 84
88 87 86 85 83 80 76 71 64 58 55 58 64 72 78 83 88 91 93 93 92 90 89 88 86 83 80 80 82 85 85 83 82 83 85 84 84 85 87 87 87 85 83 83 81 79 74 74 75 74 74 76 78 81 84 87 88 88 89 89 90 89 89 90 91 91 91 91 91 91 90 90 91 92 92 92 91 91 89 85 83 82 84 81 80 81
88 87 86 85 83 81 77 70 62 55 52 59 69 79 87 89 91 92 93 93 92 91 90 89 88 86 83 81 81 82 82 83 85 87 89 89 89 88 89 89 88 85 82 80 79 78 75 73 73 73 75 77 79 82 86 88 89 89 89 90 91 91 91 90 90 90 90 91 91 92 92 92 92 92 92 91 91 92 91 86 83 81 81 81 84 87
89 88 87 86 84 81 75 66 58 54 56 67 77 85 90 91 92 92 93 92 92 92 91 89 88 88 85 82 80 79 81 85 88 90 91 91 90 90 90 90 89 86 81 78 77 76 75 74 74 75 76 77 81 84 88 89 89 90 90 90 90 90 90 89 89 90 91 91 92 92 92 92 91 91 93 91 92 92 91 89 89 87 84 87 90 92
89 87 86 86 85 81 74 64 59 59 68 79 86 90 90 90 91 92 93 92 92 92 90 86 85 85 86 84 81 81 85 89 91 91 91 91 91 90 90 90 88 85 81 78 77 75 74 73 73 73 74 77 81 85 87 89 89 89 89 89 90 90 89 88 89 90 91 91 92 92 92 92 92 91 91 91 91 91 90 90 90 89 87 88 89 89
89 87 86 86 84 80 73 68 67 72 81 88 92 93 92 92 93 93 93 92 92 91 89 85 82 82 84 83 83 85 90 92 92 92 91 92 91 89 87 87 86 83 80 77 74 73 71 70 69 70 72 74 77 81 84 87 89 89 88 90 90 90 90 90 90 90 90 91 90 90 89 90 91 91 91 91 91 91 90 90 92 93 91 92 90 87
88 88 86 85 83 79 74 70 70 75 84 88 91 92 93 93 93 93 93 92 91 89 84 82 82 84 86 87 89 91 92 92 92 92 92 91 90 87 81 82 82 81 78 75 74 73 72 71 71 71 73 75 77 79 82 85 86 87 88 88 88 88 90 90 90 89 89 90 89 89 90 91 90 90 90 90 90 91 91 92 92 92 88 85 83 84
87 86 86 84 83 80 76 71 71 76 84 89 92 93 93 93 93 93 93 92 88 83 77 80 83 86 89 92 92 92 92 92 92 92 91 91 88 83 77 79 80 81 79 76 75 74 74 74 75 74 74 75 76 77 79 84 86 88 89 89 89 88 89 89 88 88 88 88 88 88 89 89 89 89 88 89 90 91 92 91 88 87 88 87 83 81
88 86 83 82 81 79 75 72 74 80 88 92 93 93 94 93 93 93 93 90 83 76 74 79 85 89 92 93 93 92 92 92 91 91 91 90 87 81 74 78 82 83 82 79 77 76 77 77 77 76 76 76 77 78 80 84 86 88 89 89 88 88 89 88 88 88 89 88 88 88 89 89 90 91 91 91 90 90 90 89 89 89 89 91 91 91
86 84 81 81 80 80 78 79 83 88 92 93 93 93 93 93 93 92 92 83 75 71 74 83 89 93 93 93 93 92 91 91 91 90 89 89 86 82 76 81 84 85 85 82 80 79 79 79 78 78 77 77 78 80 82 85 87 89 89 88 88 88 89 89 89 88 89 89 89 89 90 91 91 90 90 90 90 90 91 90 88 86 84 87 90 92
85 82 80 81 82 84 86 88 91 92 93 93 93 93 92 92 92 91 86 72 66 68 76 86 91 93 93 92 91 90 90 89 89 88 88 88 87 85 82 85 87 88 86 83 82 81 81 81 80 79 79 78 79 80 80 83 85 87 88 88 89 89 89 88 88 89 90 90 90 91 91 91 90 90 90 91 91 90 90 90 89 85 79 81 84 88
86 84 83 84 86 89 92 92 93 93 93 93 92 92 92 92 90 85 76 69 69 74 85 91 93 93 93 92 91 89 86 85 86 87 89 89 89 87 85 87 88 88 87 86 84 84 84 83 81 81 81 81 80 79 78 78 81 85 87 89 89 88 88 89 90 90 90 90 90 89 89 90 89 89 90 90 90 90 91 91 90 88 81 80 81 84
90 89 88 88 90 92 93 93 93 93 92 93 93 92 91 89 84 77 72 71 76 84 91 93 93 93 92 92 90 87 83 83 85 87 89 90 90 89 87 89 89 88 88 88 87 86 86 85 85 85 86 85 82 78 76 76 79 83 85 87 88 88 89 89 89 89 88 88 88 89 90 90 90 90 91 91 91 90 88 88 88 88 85 85 85 86
92 92 92 92 92 92 93 93 93 92 92 93 93 92 90 85 79 76 76 79 85 91 93 93 93 92 92 91 88 85 83 85 86 88 89 90 90 89 89 89 89 88 88 88 88 88 89 88 88 88 87 86 83 79 76 78 79 80 82 85 86 87 87 87 88 88 88 88 89 89 91 91 91 91 92 91 90 88 85 86 88 90 90 90 91 92
93 93 92 92 92 92 93 93 93 93 92 92 92 91 90 87 87 88 90 90 91 93 93 93 93 92 91 91 88 85 85 88 89 89 90 90 90 90 89 89 89 89 89 89 89 89 88 88 88 87 85 85 84 82 79 79 77 77 78 81 83 85 85 87 89 90 89 89 90 90 90 91 91 91 91 91 90 90 89 90 90 90 90 91 91 92
93 93 93 93 92 92 93 92 92 92 91 92 91 90 90 91 92 93 93 93 93 93 92 92 92 91 90 90 90 89 89 89 89 89 90 90 90 90 89 90 90 90 90 90 90 90 89 88 86 85 83 83 84 84 82 80 77 76 77 79 80 82 83 86 88 89 89 89 90 90 90 90 90 91 91 90 90 91 91 91 91 91 91 91 91 91
92 92 91 91 88 85 82 80 80 83 85 87 89 90 92 92 93 93 93 93 93 92 92 91 89 88 87 90 91 91 91 87 86 87 90 90 90 90 90 90 90 90 90 90 90 90 90 87 85 84 83 84 84 85 85 84 82 80 80 81 81 81 81 85 87 89 89 89 90 90 90 90 90 90 90 90 91 91 91 91 91 91 91 91 90 90
92 91 89 84 76 68 61 59 60 64 68 72 77 83 90 92 93 93 93 93 92 91 90 86 84 84 86 89 91 91 90 84 83 85 90 90 91 91 91 90 90 90 90 90 89 89 90 88 86 85 85 86 86 87 87 87 86 85 84 83 82 81 81 85 87 89 89 89 89 90 90 90 90 90 90 90 90 90 90 90 91 92 92 91 91 90
91 88 83 74 64 56 52 51 52 54 57 61 68 77 88 92 93 92 92 90 89 86 84 81 80 80 85 89 90 91 91 87 85 86 90 91 91 91 91 91 91 90 90 90 89 88 89 89 89 88 88 88 88 88 89 87 86 86 85 85 84 83 83 85 86 88 88 89 89 89 89 90 90 89 90 90 90 90 89 90 91 91 92 91 91 91
89 85 77 69 62 58 55 54 56 58 60 63 69 77 86 89 90 89 86 84 82 81 80 78 78 80 85 89 91 91 91 89 86 85 88 90 91 91 91 91 91 90 90 90 90 89 89 89 90 90 89 89 89 88 88 87 86 86 86 86 86 85 85 85 86 87 87 88 88 89 88 88 88 89 90 90 90 90 90 90 90 91 91 91 91 91
87 82 77 72 68 63 59 59 61 65 69 73 76 80 85 86 85 83 80 80 79 79 78 77 78 81 86 90 91 91 91 87 84 82 86 90 91 91 91 91 91 91 90 90 90 90 90 90 90 90 90 89 88 88 88 88 87 86 86 86 86 87 87 87 87 88 88 88 88 87 87 87 87 88 89 90 90 90 90 90 91 91 91 91 91 91
88 85 83 80 76 69 62 63 67 73 79 83 85 86 87 86 85 84 82 82 81 79 76 75 77 81 86 89 90 91 89 83 78 77 82 87 90 91 91 91 91 91 90 90 90 90 90 90 90 90 90 89 89 89 88 88 87 86 86 87 87 88 88 87 88 88 88 87 87 87 87 88 88 89 89 89 90 90 90 91 91 91 91 91 91 92
91 90 89 86 80 72 62 62 68 77 85 88 90 90 89 89 88 87 86 83 79 75 72 72 74 77 82 86 88 89 87 80 77 76 78 84 88 90 90 90 91 90 90 90 90 90 90 90 90 90 89 89 89 89 89 88 87 87 88 88 88 88 88 88 89 89 89 88 88 88 88 89 89 90 89 90 90 90 90 90 90 90 91 91 91 92
92 91 90 86 78 69 60 60 65 74 84 89 91 90 90 90 89 87 86 81 76 71 69 69 71 73 76 79 83 84 84 81 79 77 76 79 84 88 89 90 91 90 89 89 90 90 90 90 90 90 90 89 89 88 88 88 88 88 89 89 89 89 88 89 89 89 89 89 88 88 89 90 90 90 90 89 89 89 88 88 89 89 90 90 91 91
92 91 89 82 73 65 59 59 63 70 78 86 90 91 90 90 89 87 85 79 73 68 68 69 70 71 73 75 77 79 80 80 78 75 73 75 79 85 89 90 91 90 90 90 90 90 89 89 89 89 90 90 89 88 88 88 89 89 90 89 89 89 89 89 89 89 89 89 89 89 89 90 90 90 90 89 88 88 88 88 88 88 89 88 86 84
92 90 86 78 70 64 61 61 63 67 75 84 89 92 91 90 89 87 84 77 71 67 67 70 72 73 74 75 75 76 76 75 73 71 70 71 74 80 86 89 90 90 90 90 90 89 88 88 88 89 89 90 90 89 89 89 89 90 90 90 89 89 89 89 89 89 89 89 89 89 88 88 89 90 90 90 89 90 90 89 89 88 87 85 82 77
93 91 87 78 72 68 67 66 68 72 81 89 92 92 92 91 89 86 81 74 69 67 68 73 76 78 78 76 74 73 71 70 69 68 67 68 70 75 83 88 90 90 90 90 90 90 89 88 89 90 90 90 90 90 90 90 90 90 89 90 90 89 89 88 88 89 89 90 90 89 89 89 89 90 90 90 90 90 90 90 89 88 87 87 85 81
92 90 85 79 76 74 74 74 78 84 90 92 92 92 91 90 87 83 78 73 69 68 71 77 81 82 80 76 72 69 67 66 65 64 64 65 68 72 79 84 88 89 90 90 90 90 90 89 89 90 90 90 90 90 90 90 90 90 90 90 90 89 89 88 88 89 90 89 89 90 90 90 90 90 91 91 91 91 90 90 89 88 88 87 88 88
91 88 83 80 81 82 83 85 89 92 93 93 92 92 91 89 86 82 77 72 70 71 75 81 84 83 78 72 67 64 62 61 61 61 62 64 66 70 75 79 84 88 90 90 90 90 90 90 90 90 90 90 90 90 90 90 90 90 90 90 90 89 89 87 86 87 89 89 89 89 90 90 90 90 91 91 90 90 90 90 89 89 89 88 88 88
91 88 86 87 89 91 92 93 93 93 93 93 92 91 90 88 86 83 79 75 73 73 76 80 83 83 82 75 67 61 58 59 60 61 62 63 65 68 72 76 81 86 90 90 90 90 89 90 90 90 90 90 90 90 90 90 90 90 90 89 89 89 90 86 85 86 88 89 89 90 90 90 90 90 91 91 91 90 90 89 89 89 89 89 88 87
90 90 91 92 93 93 93 93 93 93 93 93 92 91 90 88 86 84 81 77 75 74 76 80 83 86 88 83 75 67 61 60 59 60 61 62 64 67 70 75 79 84 89 90 90 90 89 90 90 89 89 90 90 90 90 90 90 89 88 88 88 89 89 88 88 88 89 89 89 89 90 90 90 90 91 90 90 90 90 90 89 89 88 87 87 86
90 92 93 93 93 93 93 93 93 93 93 93 92 91 90 89 87 85 82 78 76 76 78 82 86 89 90 86 82 77 72 66 62 60 59 60 62 65 69 74 79 84 88 89 90 90 90 89 89 89 88 89 89 90 89 89 89 89 88 86 86 87 88 88 88 89 89 89 88 89 89 90 90 91 91 90 90 91 91 90 90 89 88 87 86 85
86 90 92 92 92 92 92 92 93 93 93 92 92 91 90 89 87 85 82 79 79 81 82 86 89 90 90 88 87 85 83 76 68 62 60 59 60 61 65 70 76 82 87 89 90 89 89 89 89 89 89 89 89 89 89 89 88 88 87 85 85 87 88 88 88 89 89 89 89 89 88 90 90 90 91 91 91 91 91 91 91 90 90 88 87 85
77 82 84 85 86 88 89 91 92 93 93 92 92 91 90 89 86 83 81 81 82 85 88 90 91 91 91 90 89 88 87 82 75 68 63 61 60 60 63 67 72 78 84 88 89 89 89 89 89 89 89 89 89 89 87 86 85 85 84 85 86 88 88 88 88 88 89 89 89 89 89 90 90 90 91 91 91 91 90 90 90 90 90 89 88 87
71 74 77 80 84 87 90 92 92 93 93 92 92 91 89 87 84 81 80 81 83 86 89 90 91 90 90 90 89 88 87 86 82 77 72 68 65 64 66 69 73 77 82 85 86 87 88 88 89 89 89 89 89 88 87 83 82 83 83 85 87 89 88 88 88 88 88 89 89 89 89 89 90 90 90 90 90 90 90 90 89 89 90 90 89 89
75 78 81 85 89 92 93 93 93 92 92 92 91 90 87 84 82 81 81 81 84 86 90 91 91 91 90 89 88 87 87 87 86 84 80 76 74 73 73 75 78 81 83 83 84 84 86 88 88 88 88 88 88 88 87 84 83 83 83 84 85 86 87 87 88 88 88 88 88 89 89 89 89 89 89 90 90 90 90 89 88 88 88 89 90 89
83 87 90 92 93 93 93 93 93 92 92 92 91 88 84 81 80 81 82 84 86 89 90 91 91 91 91 89 87 86 86 87 87 85 82 80 80 81 83 84 85 87 87 87 87 87 87 88 88 87 87 87 88 88 87 85 84 83 82 80 79 80 83 86 87 88 88 88 88 88 89 88 89 89 89 90 90 90 90 89 88 88 88 89 89 89
86 90 93 93 93 93 93 93 93 92 92 91 89 86 83 82 82 83 85 87 89 90 90 90 90 90 90 88 87 85 86 87 87 85 82 82 84 87 89 89 89 90 90 90 90 90 90 90 89 87 86 84 85 87 86 85 84 82 81 78 77 78 81 85 87 87 87 87 87 87 88 88 88 89 89 89 89 90 91 90 90 90 89 90 89 88
Wind_Speed
35 35 33 33 32 32 31 30 30 30 30 29 29 28 28 28 27 27 26 26 26 26 26 26 27 27 27 27 28 28 28 29 29 30 30 31 31 32 33 34 35 36 37 37 37 37 38 39 40 40 41 41 42 42 43 43 44 44 45 45 45 46 46 46 46 46 46 46 46 46 47 48 48 48 48 47 47 46 46 46 46 46 46 45 45 45
35 35 34 33 32 32 32 30 30 30 30 30 29 28 28 28 27 27 27 26 26 26 26 26 27 27 28 28 29 29 29 29 30 30 31 31 32 33 34 35 36 36 37 37 37 38 39 40 41 41 41 41 42 42 42 42 43 43 44 44 44 45 45 45 45 45 46 46 46 46 46 46 47 48 48 48 47 47 46 45 45 45 45 45 45 44
35 34 34 33 32 32 32 31 30 29 30 30 29 28 28 28 27 27 27 26 26 26 26 26 27 28 29 29 29 30 30 30 31 31 31 31 32 33 34 35 36 37 37 38 38 39 39 40 40 40 40 40 40 41 41 41 42 42 43 43 43 44 44 45 45 45 46 45 45 45 46 46 47 47 47 48 48 48 47 45 45 45 45 46 45 45
35 35 34 33 32 32 32 31 30 30 30 29 29 28 28 27 27 27 27 26 26 26 26 27 27 28 29 30 30 31 31 31 31 31 32 32 33 34 35 36 36 37 38 38 38 39 38 38 39 39 39 40 40 41 41 42 42 43 43 44 44 45 45 45 46 46 46 46 46 46 46 46 46 46 46 47 47 47 46 45 44 44 45 46 46 45
36 35 34 33 32 32 32 31 30 30 30 30 29 28 28 27 27 27 26 26 26 27 27 27 27 28 29 30 31 32 32 31 32 32 32 33 34 35 36 36 37 37 37 38 38 38 38 38 39 39 40 40 41 42 42 43 43 44 44 45 45 45 45 46 46 46 46 46 46 46 45 45 45 45 45 45 44 43 43 43 43 43 43 44 45 45
36 35 34 33 32 32 32 31 31 31 31 30 30 28 27 27 26 26 26 26 27 27 27 27 28 28 29 30 31 32 32 32 32 33 34 35 36 36 36 36 36 36 37 37 38 38 39 39 39 40 40 41 41 42 42 43 43 44 44 45 45 45 45 45 45 45 45 45 45 45 44 44 44 43 43 43 42 41 40 41 41 42 42 43 43 43
36 35 33 33 32 32 32 32 32 31 31 31 29 28 27 26 26 26 26 26 27 27 28 28 28 29 30 31 31 32 33 33 34 35 36 37 37 36 35 35 35 36 37 38 39 39 39 40 40 40 40 41 41 41 42 42 43 43 44 44 45 44 44 44 44 44 44 43 43 43 43 43 43 42 42 42 41 40 40 41 41 42 42 43 43 43
36 35 33 33 33 33 33 33 32 31 31 30 29 27 26 26 25 26 26 26 27 27 28 28 29 29 30 31 31 32 33 34 35 36 36 36 36 36 36 37 37 38 39 39 39 39 39 39 40 40 40 41 41 41 41 42 42 42 43 43 43 43 43 43 43 43 42 42 42 41 42 42 42 42 42 42 42 41 41 42 42 43 43 43 43 43
36 35 34 33 33 33 34 33 32 31 30 28 27 27 26 26 26 26 26 26 27 27 27 28 29 30 31 31 32 32 32 33 34 34 34 35 36 37 38 39 39 39 39 38 38 38 38 38 39 39 40 40 40 40 41 41 41 41 42 42 42 42 42 42 42 42 41 41 41 41 41 41 41 41 42 42 42 42 42 42 43 43 43 43 43 44
36 35 34 34 33 33 33 34 33 31 29 27 26 25 25 26 26 27 27 27 27 26 26 26 27 29 31 32 32 32 32 33 33 34 35 36 38 39 39 38 38 38 37 37 37 37 37 38 38 38 39 39 39 40 40 41 41 41 41 41 41 40 40 40 40 40 40 40 40 41 41 41 41 41 41 42 42 42 43 43 43 43 43 43 43 44
36 35 34 34 34 33 33 34 32 30 28 27 26 26 26 26 26 26 27 28 27 26 25 25 26 28 30 32 33 33 33 34 35 36 37 38 39 38 37 36 36 36 37 37 36 36 36 36 36 37 38 38 39 39 39 39 40 40 40 39 39 38 38 38 39 39 39 39 39 40 40 40 40 40 40 41 41 42 42 42 43 43 43 44 44 43
35 34 34 33 33 33 33 33 32 30 28 26 26 26 27 26 24 24 25 27 27 26 25 26 27 30 32 33 35 35 34 34 35 37 38 38 38 37 36 35 36 36 36 37 37 37 37 37 37 37 38 38 38 37 37 37 38 38 37 37 37 36 37 37 37 37 38 38 38 38 38 39 39 39 40 40 41 41 42 42 43 43 44 44 44 43
35 34 33 33 33 33 33 32 30 29 27 25 25 25 26 24 23 22 23 25 26 26 26 27 30 33 35 35 35 34 34 34 36 37 37 36 35 34 33 33 34 36 37 37 39 39 39 39 38 38 38 37 36 36 35 35 35 35 35 35 35 35 35 35 35 36 36 36 37 37 38 39 39 40 40 41 41 42 43 44 44 44 44 44 44 44
34 33 33 33 33 33 32 31 30 28 26 25 25 24 23 22 21 22 23 25 26 26 27 29 32 35 36 35 34 32 31 32 34 35 34 34 32 31 32 33 35 37 39 39 40 41 40 39 38 38 37 37 36 35 35 34 34 34 34 34 34 34 35 35 36 36 37 37 38 38 40 40 41 41 42 42 43 44 44 45 44 44 45 45 45 44
34 33 32 32 33 33 32 31 30 29 27 26 24 23 22 22 22 23 24 26 27 27 28 30 32 34 35 33 31 29 28 29 30 31 32 32 32 32 33 35 37 39 40 40 40 40 39 38 37 37 37 37 36 36 34 34 33 33 34 34 35 35 36 36 37 37 38 38 39 40 41 41 42 42 42 43 44 45 45 45 45 44 44 44 44 44
35 34 33 33 33 33 32 31 29 28 27 26 24 23 23 23 24 25 26 27 27 27 28 29 30 31 32 31 28 26 25 26 27 29 30 33 34 35 35 36 38 40 40 39 39 38 38 37 36 36 36 36 35 34 33 33 33 33 34 34 35 36 36 37 37 37 38 39 39 40 40 41 41 42 42 43 43 44 45 46 45 45 44 44 43 43
35 34 33 34 34 33 32 31 29 28 27 26 24 24 24 25 26 27 27 27 27 26 27 27 27 28 29 29 28 26 23 24 26 29 32 35 37 38 36 36 37 39 40 39 38 37 37 36 35 35 35 35 34 34 33 33 33 34 34 35 35 36 36 36 37 37 38 38 39 40 40 41 41 42 42 43 43 44 45 45 45 45 45 44 44 43
36 35 35 34 34 34 32 30 29 28 26 25 25 25 25 26 27 27 27 26 26 27 27 28 27 27 28 29 29 27 24 24 27 31 35 37 39 39 37 36 37 38 39 38 37 36 35 34 34 35 35 34 34 33 33 33 34 34 35 35 35 36 36 37 37 38 38 39 40 40 41 41 41 42 42 43 43 44 44 45 45 45 46 45 45 44
36 35 35 35 34 33 31 29 27 26 25 24 24 24 26 27 27 27 26 26 27 28 29 29 29 29 30 31 31 30 27 27 29 32 36 37 39 39 38 37 36 37 37 37 36 35 34 35 35 35 35 34 33 33 33 34 34 34 35 35 36 36 37 37 38 38 39 39 39 39 40 40 41 41 42 42 43 43 43 44 44 45 45 45 45 44
36 34 35 34 33 32 30 28 27 25 25 25 25 26 27 27 27 27 27 27 27 29 30 30 31 31 31 32 32 31 29 29 31 33 35 37 39 40 39 36 35 35 36 36 36 35 35 35 35 35 35 34 34 33 34 34 34 35 35 36 36 36 37 37 38 38 38 38 38 38 38 39 39 39 40 40 40 41 41 42 43 43 43 44 44 44
36 35 35 33 32 30 29 28 27 26 25 25 26 27 27 28 28 27 27 28 28 29 30 30 31 32 32 32 32 32 31 31 32 33 36 38 39 40 38 35 33 34 35 36 36 35 34 35 35 35 35 35 34 34 35 35 35 35 36 36 36 36 36 37 37 37 37 37 37 37 37 38 38 38 38 39 40 40 41 41 41 41 41 41 42 42
37 35 34 32 31 30 30 29 28 27 27 27 27 28 28 29 28 28 28 29 30 31 31 31 32 33 33 33 33 33 33 33 32 33 34 35 37 38 37 34 32 33 35 36 36 35 34 34 34 35 35 35 35 35 35 35 35 35 35 35 35 35 36 36 36 36 37 37 37 37 37 37 37 38 39 40 40 41 41 41 41 41 40 39 38 39
36 35 33 32 32 32 32 31 31 30 30 30 30 30 30 30 30 30 31 32 33 33 33 34 34 35 35 34 34 34 34 33 32 32 31 31 34 37 36 33 32 33 35 36 35 35 35 35 35 35 35 34 34 34 34 34 34 34 34 34 34 35 35 36 36 36 36 37 37 37 37 38 38 39 39 40 41 41 42 41 41 40 39 37 36 36
37 36 35 34 34 34 34 34 34 34 33 33 33 33 33 33 34 35 36 37 36 36 37 37 36 35 34 33 33 33 34 33 31 30 29 30 32 35 35 33 32 33 35 35 35 34 35 35 35 35 34 34 34 34 33 33 33 33 33 34 35 35 35 35 35 36 36 37 37 37 38 38 38 38 38 39 39 39 39 39 38 38 37 36 35 34
39 38 37 37 36 36 36 36 36 36 35 35 36 36 36 36 37 38 38 38 38 38 37 36 34 32 31 31 31 32 33 32 30 27 27 27 30 33 34 33 32 33 35 35 35 34 34 35 36 35 34 34 34 33 32 32 32 32 32 33 34 34 34 35 35 36 36 36 36 37 37 37 37 37 37 37 36 36 36 36 36 36 36 35 34 34
40 40 39 38 38 37 37 37 38 38 38 38 39 39 40 39 39 39 40 40 38 36 34 31 29 29 29 30 31 33 33 31 28 25 25 26 29 33 34 33 31 32 34 35 35 34 34 35 36 35 34 34 33 32 32 31 31 31 32 33 33 34 34 35 35 35 35 35 35 36 36 36 36 36 36 35 35 35 35 35 35 35 34 34 33 33
39 38 38 38 38 38 38 38 39 39 39 39 39 39 39 39 39 40 41 39 36 32 28 26 26 28 29 30 32 33 32 29 26 25 25 27 30 33 34 32 31 31 33 35 35 34 34 35 35 34 34 33 32 31 31 31 31 32 32 33 34 35 35 36 36 35 35 35 35 35 35 35 35 35 35 35 35 35 35 35 35 34 33 32 32 33
39 38 38 38 38 38 38 39 39 39 38 37 35 34 33 35 37 39 40 36 31 27 24 25 26 28 29 30 32 33 32 29 27 26 25 26 28 30 32 31 31 31 33 34 35 35 34 33 32 32 32 31 30 30 30 31 32 33 34 35 36 36 37 37 36 35 35 35 34 34 34 34 34 34 34 34 34 35 35 36 35 34 33 32 33 34
42 41 40 40 40 40 40 40 39 38 36 34 32 30 30 32 35 36 35 31 27 24 24 26 28 29 30 31 32 33 32 30 27 25 22 23 26 28 30 31 31 32 33 34 35 36 34 31 29 28 28 29 29 29 31 33 35 37 37 37 37 38 38 37 36 35 34 34 34 34 34 34 34 34 33 33 32 33 34 34 34 34 33 33 34 33
44 43 42 42 41 40 40 39 37 35 33 31 30 29 29 31 32 31 29 26 25 25 27 29 31 31 31 30 30 30 30 28 25 21 20 22 26 29 30 31 31 31 31 32 34 34 34 33 30 27 26 27 29 31 33 35 37 38 38 39 39 40 40 38 36 35 34 34 34 34 34 34 33 33 32 32 31 31 32 32 32 32 32 32 32 31
42 41 40 40 39 38 36 35 34 32 31 30 29 29 29 30 30 29 28 27 27 29 31 33 34 33 31 28 26 26 26 26 24 21 22 24 27 29 30 30 31 31 30 29 29 30 32 35 33 30 28 28 30 32 34 35 36 38 39 39 41 41 41 39 37 36 35 35 35 34 34 34 33 33 32 31 31 30 30 29 29 29 29 30 30 31
36 36 36 35 33 32 30 30 30 29 29 28 28 29 30 31 31 31 30 31 31 33 35 36 35 33 30 28 27 27 28 28 27 25 25 26 28 29 30 31 32 32 31 30 29 28 28 32 35 36 34 32 32 33 33 34 35 36 37 39 40 41 42 41 39 38 38 37 36 35 35 34 34 33 32 32 31 30 28 27 26 26 26 28 30 32
32 32 31 30 29 27 26 26 26 26 26 27 27 28 29 30 31 32 32 33 34 35 35 35 33 31 28 28 29 30 31 31 29 27 26 27 29 30 31 31 32 33 33 32 31 30 30 33 36 37 37 35 33 32 32 34 34 35 35 37 39 41 42 42 42 41 40 39 38 38 37 37 36 34 33 32 30 29 27 26 25 25 25 27 29 32
30 30 30 29 28 26 25 25 25 25 25 25 26 27 28 29 30 31 32 33 33 33 33 31 30 28 28 27 29 30 31 31 29 27 26 27 29 31 32 32 33 34 34 32 31 31 32 34 35 36 35 35 34 33 32 32 33 33 34 35 37 39 41 42 42 42 41 40 40 40 40 39 37 36 34 32 30 29 28 27 26 25 25 26 27 29
30 30 30 30 29 28 26 26 26 26 26 26 26 27 28 29 30 31 31 32 31 30 29 28 28 27 27 28 29 31 32 31 29 27 26 27 29 31 33 33 33 33 33 34 34 33 33 33 34 34 35 35 35 34 32 31 31 32 33 34 36 38 40 41 42 42 42 42 41 41 40 39 38 36 34 32 31 30 29 29 27 25 23 23 23 25
31 31 31 31 31 30 28 27 27 27 27 27 28 28 29 30 30 31 30 30 29 28 27 26 26 26 26 27 29 32 33 32 29 27 25 26 28 31 33 33 33 33 34 35 35 34 34 34 35 35 34 34 34 34 33 32 32 32 33 34 35 37 38 40 40 41 41 41 40 40 39 38 37 36 35 33 32 31 30 29 28 25 22 20 20 22
32 32 32 32 31 30 29 28 27 27 27 28 29 29 30 30 30 30 29 28 27 26 26 25 25 25 26 27 28 30 31 31 29 27 25 25 26 29 32 33 33 33 33 34 34 34 35 36 36 35 33 32 32 33 33 35 35 34 34 34 35 36 38 38 38 38 38 38 39 39 38 38 37 36 35 34 33 33 32 30 28 26 24 22 21 21
33 33 32 31 31 30 30 29 28 27 27 28 29 30 31 30 29 28 28 27 27 26 25 25 25 25 26 27 28 29 30 30 29 27 25 25 25 27 30 32 33 32 32 33 33 34 35 36 35 34 34 33 33 34 34 35 36 36 36 35 35 35 36 36 35 35 35 36 37 37 37 37 37 36 36 35 35 34 33 32 31 29 27 25 23 21
34 34 32 32 31 30 30 29 28 27 27 28 29 30 30 29 28 27 27 27 27 26 26 25 26 26 27 28 29 30 30 30 29 27 26 25 25 26 28 31 32 32 32 32 33 33 34 35 35 34 34 35 36 37 37 36 36 36 37 36 36 36 35 34 34 34 35 36 36 36 37 37 36 36 36 35 34 33 31 32 32 31 29 27 25 22
33 32 32 31 31 30 30 29 28 27 27 28 29 29 28 27 26 26 27 28 28 27 27 26 27 28 29 30 31 31 31 30 29 28 26 25 25 25 27 29 31 32 32 32 32 33 34 34 35 35 35 36 37 38 38 37 36 35 36 36 35 35 35 35 35 35 35 34 34 34 35 36 36 35 34 33 32 32 31 31 32 31 30 28 27 25
32 32 32 31 31 30 30 29 28 27 28 29 29 28 27 26 26 26 27 28 28 28 27 27 28 30 31 32 32 32 31 30 29 28 27 25 25 25 26 28 30 31 31 32 33 33 34 34 34 35 36 37 38 38 38 38 36 35 35 35 35 35 36 36 35 34 33 33 33 34 34 35 34 34 33 33 32 32 31 31 32 31 29 27 26 26
31 32 32 32 32 31 30 29 28 28 29 29 28 27 26 26 26 27 28 28 29 29 28 29 30 31 32 32 31 31 31 30 30 29 27 26 25 25 26 27 29 30 31 32 33 34 33 33 33 35 36 37 37 38 39 39 37 35 33 33 34 35 36 35 34 32 32 33 34 35 35 34 34 34 34 34 34 33 32 31 30 29 28 27 26 25
31 31 32 32 32 31 30 29 29 29 29 28 27 27 26 26 26 27 28 29 29 29 29 29 29 30 30 31 31 31 30 30 29 28 27 26 25 25 26 27 28 29 30 31 33 34 34 33 34 34 35 36 37 38 39 38 37 36 34 33 33 32 32 34 34 34 34 34 35 35 35 35 35 35 35 35 35 34 33 31 30 29 28 27 26 25
31 32 32 32 31 30 29 29 29 30 29 29 28 27 27 26 27 27 28 29 30 30 29 29 28 28 28 30 31 31 31 30 29 28 27 25 24 25 26 27 28 29 30 31 32 34 35 35 36 36 36 36 36 37 39 38 37 36 35 33 31 31 31 33 35 35 35 35 35 35 35 35 36 36 37 37 36 35 33 32 30 29 28 27 26 25
31 32 32 31 31 30 30 31 31 31 31 30 29 28 28 27 28 29 29 30 30 29 29 27 26 26 28 30 31 31 32 31 30 28 26 25 24 24 25 27 28 29 30 31 32 33 34 36 37 38 38 36 35 35 36 37 37 37 35 34 32 31 32 33 34 34 35 36 36 36 36 35 36 36 37 37 37 35 33 32 31 30 29 28 27 26
33 33 33 33 32 32 32 33 33 33 33 32 30 29 29 29 29 29 29 29 29 28 27 26 25 26 27 29 30 30 31 31 30 29 27 25 24 23 24 26 27 29 30 31 32 33 34 35 37 38 38 36 35 35 36 36 37 36 35 34 32 32 32 33 33 33 34 35 36 36 36 36 36 36 37 37 37 35 34 32 31 30 29 29 28 27
34 34 34 34 34 34 34 35 35 34 33 32 31 30 30 30 30 30 30 29 28 27 26 26 25 26 28 29 29 29 30 31 31 30 28 26 24 24 24 26 27 29 30 32 33 34 35 36 36 36 35 35 35 35 36 35 35 35 35 34 33 32 32 33 33 32 33 34 36 36 36 36 35 36 36 37 36 36 34 32 31 30 29 29 28 28
34 34 34 34 34 35 35 36 35 34 33 32 31 31 31 31 30 30 30 30 29 28 27 27 27 28 28 29 29 29 29 30 31 31 30 29 27 26 26 27 28 29 30 32 33 35 36 36 35 33 31 31 32 33 35 35 34 34 34 33 32 31 31 31 31 31 32 33 35 35 35 34 34 34 35 36 36 35 34 33 31 29 29 29 29 28
33 33 33 33 34 35 35 35 34 33 32 32 32 32 32 32 31 30 30 30 29 29 29 28 29 29 29 29 30 29 29 29 30 30 31 31 30 29 29 29 30 31 32 33 34 35 36 35 33 30 27 26 27 29 32 33 33 33 32 32 30 29 29 29 30 31 31 33 34 34 34 34 33 33 34 34 34 34 33 33 31 30 29 29 29 29
34 34 34 34 34 34 34 33 32 32 32 32 33 33 33 33 31 30 30 30 30 30 30 30 30 30 30 30 30 30 29 29 30 31 31 31 31 31 31 31 32 32 33 34 34 34 34 33 31 29 27 24 23 24 27 30 32 32 32 31 30 29 28 29 29 30 31 32 33 34 35 34 34 33 32 31 31 32 33 33 32 31 29 28 29 29
35 35 34 34 33 33 32 32 32 32 33 34 34 34 33 32 31 30 30 30 31 31 31 31 31 31 31 31 30 29 29 29 30 31 31 31 31 31 32 32 32 32 32 32 31 31 30 30 30 31 30 26 22 21 22 26 30 32 32 32 31 29 28 28 29 30 31 32 34 35 36 35 34 32 30 28 28 29 30 31 31 30 29 29 29 30
Wind_Direction
268 270 270 270 269 270 272 273 276 278 281 283 286 288 290 291 291 291 293 293 294 295 296 297 299 300 302 304 305 304 303 302 300 299 298 296 295 294 292 292 292 291 292 292 292 292 292 292 291 290 290 289 289 288 288 288 287 287 287 286 286 285 285 285 286 286 287 287 286 286 286 286 286 285 283 282 281 279 278 277 276 275 274 273 272 271
268 270 269 269 269 270 273 274 276 279 282 285 287 289 290 290 291 292 293 294 295 296 297 299 300 302 304 305 306 306 305 304 303 301 299 297 297 296 293 293 292 292 292 293 293 293 292 292 291 290 289 289 288 288 288 287 287 287 287 286 286 285 285 285 285 285 285 284 284 284 284 284 283 282 282 282 281 280 278 277 276 274 273 272 272 271
266 267 268 269 270 271 273 275 277 279 282 285 287 289 289 290 290 291 293 294 296 297 298 299 301 303 305 306 307 307 306 305 304 303 300 298 297 297 295 293 293 292 293 293 292 292 291 291 290 290 290 289 289 288 288 288 287 287 287 286 286 285 285 285 284 284 284 283 283 283 284 283 283 283 284 283 282 281 280 278 276 275 273 272 272 271
264 265 267 268 270 271 273 276 278 280 282 284 286 288 288 289 289 291 293 295 296 298 299 300 302 303 305 306 307 307 307 305 304 302 300 297 296 295 294 293 293 293 292 292 292 292 292 292 292 291 291 290 290 289 289 289 288 288 287 287 287 286 286 285 285 284 284 284 284 283 283 283 284 285 285 284 283 282 281 279 278 276 275 274 274 273
263 264 266 268 269 271 274 276 278 280 282 284 286 287 287 288 289 292 294 295 296 298 300 301 302 303 304 305 306 306 306 304 302 300 298 295 294 293 293 293 293 293 292 292 292 293 293 292 292 291 291 290 290 290 289 289 288 288 287 287 287 286 286 285 284 284 284 284 284 283 283 283 283 285 285 285 284 283 281 279 279 278 277 277 276 276
262 264 265 267 268 271 274 276 277 280 282 284 285 286 287 288 289 291 292 294 296 297 299 300 301 302 302 303 304 304 304 302 300 299 297 295 294 293 293 293 293 293 293 293 293 293 293 291 291 291 291 291 290 289 289 288 288 288 287 286 285 285 285 284 284 283 283 283 282 282 281 281 282 283 285 285 284 282 280 279 278 278 277 277 276 275
262 263 264 266 268 271 274 275 277 279 281 283 285 287 287 287 288 289 290 292 294 295 297 298 299 300 300 301 302 303 302 300 299 298 298 298 297 296 295 294 294 294 294 293 293 292 292 292 291 291 291 290 290 289 289 289 288 288 287 286 285 285 284 284 283 283 283 282 281 280 279 279 280 280 281 282 281 280 279 278 277 277 276 275 274 273
260 262 263 264 267 270 272 274 276 278 280 281 283 285 286 286 285 286 288 289 291 292 293 295 297 298 299 301 301 300 299 298 298 298 298 299 299 298 296 295 295 294 294 294 294 293 293 293 292 292 291 290 290 290 290 290 289 288 288 287 286 285 285 284 283 282 282 281 281 280 279 279 279 278 278 278 278 278 277 277 276 275 275 274 273 272
257 260 262 264 266 268 271 273 275 276 278 280 281 282 282 282 283 283 284 286 287 288 290 292 294 297 299 300 299 297 296 295 295 295 295 296 296 296 296 295 295 295 294 294 294 294 294 293 293 292 291 291 291 291 290 290 289 289 288 287 286 285 285 284 283 282 281 280 280 279 279 279 278 278 277 276 276 276 276 275 275 274 273 273 273 272
256 258 261 264 265 267 269 271 274 276 278 279 278 277 277 277 279 281 282 284 286 287 288 289 291 294 297 297 296 294 293 292 292 292 292 293 294 295 295 295 295 295 295 294 294 293 294 294 293 293 292 292 291 291 290 289 289 288 287 287 285 284 284 283 282 281 280 279 279 278 278 278 278 277 276 276 275 275 275 274 274 273 273 272 271 271
254 257 260 262 265 266 268 270 273 276 278 277 276 274 272 272 274 277 280 283 286 287 287 286 288 290 292 293 293 293 291 291 291 292 294 295 296 296 296 295 295 296 296 296 295 294 293 293 293 293 293 292 291 291 290 289 288 288 287 287 285 284 283 282 281 280 279 279 278 278 278 278 277 277 276 276 276 276 275 274 273 273 272 271 270 269
251 255 258 261 263 265 267 270 273 275 276 273 272 270 270 271 273 276 278 281 283 285 284 285 287 288 289 290 292 292 292 292 293 295 297 298 299 299 299 298 298 298 298 297 296 295 294 293 293 292 292 292 292 291 290 290 289 288 287 287 286 285 284 283 282 281 281 280 279 279 278 278 278 277 277 277 277 276 275 274 273 272 271 270 269 268
250 253 256 258 261 263 265 267 269 271 270 266 264 264 267 273 277 278 278 278 278 280 281 284 287 289 290 291 291 292 292 293 295 297 299 299 300 300 299 298 298 298 297 296 295 295 295 295 294 294 294 293 293 292 291 290 290 290 289 289 288 287 286 286 285 284 284 282 281 280 279 279 278 277 277 277 276 276 275 274 273 271 270 269 267 266
247 250 252 255 258 260 262 264 265 265 263 262 262 265 271 277 278 276 273 271 272 275 279 284 287 290 292 292 292 291 292 294 296 298 298 297 297 297 296 295 295 296 296 295 295 295 296 296 296 296 296 296 295 295 295 294 294 293 292 291 290 290 289 287 286 285 285 284 283 281 280 279 279 278 277 277 277 276 275 273 272 270 269 268 267 266
245 246 248 251 255 258 260 261 263 264 264 265 266 269 273 275 273 269 265 264 268 274 280 285 289 291 291 291 291 292 293 294 295 295 293 293 293 294 294 294 295 296 296 296 296 296 297 297 297 297 298 298 299 299 298 297 296 295 293 292 291 290 289 287 286 285 284 283 282 281 281 280 279 279 278 278 278 277 276 274 273 271 269 268 268 267
244 245 247 250 254 257 259 261 262 263 266 267 268 268 268 268 267 264 261 263 269 276 283 287 290 291 291 292 292 293 293 293 292 290 289 290 292 294 295 295 296 297 297 297 296 297 298 298 298 298 299 299 299 300 299 297 295 294 293 291 290 289 288 287 286 285 284 283 282 281 281 280 280 279 279 279 279 278 278 277 276 274 272 271 270 268
243 244 247 250 253 257 260 262 263 264 266 267 268 267 267 267 265 263 261 265 272 278 283 287 289 290 291 292 293 294 294 292 290 288 288 290 293 295 296 297 297 297 298 298 297 298 299 299 299 299 298 298 299 299 298 296 295 293 292 291 290 289 288 287 286 285 284 283 283 282 281 281 280 280 280 279 279 279 279 279 279 277 275 273 271 270
243 245 247 250 253 256 259 261 262 263 264 265 266 267 269 268 266 263 263 267 273 278 282 285 285 285 286 289 291 293 294 291 289 289 291 292 295 297 299 298 297 297 297 297 298 299 299 299 298 298 297 297 297 298 296 295 293 292 291 290 289 289 288 288 287 286 285 285 284 283 282 282 281 281 280 280 280 279 279 279 279 278 276 274 273 271
243 245 248 250 253 256 258 258 258 259 260 262 264 266 267 265 262 260 262 268 273 278 282 284 284 283 282 284 288 291 291 289 289 291 293 295 296 298 300 299 297 297 297 297 298 299 299 298 298 297 297 297 297 296 295 295 293 292 292 290 290 289 288 287 287 286 286 285 285 284 283 283 282 282 281 281 280 279 279 279 278 278 277 276 274 273
245 246 249 252 254 255 256 256 257 258 260 264 267 267 263 260 258 258 263 270 276 281 284 283 282 281 282 283 286 289 290 290 291 293 295 296 296 298 300 300 298 297 297 297 298 299 299 299 299 299 299 298 298 297 297 296 295 294 293 292 291 290 288 288 287 287 286 286 285 285 284 284 284 283 282 282 281 281 280 279 278 277 276 275 274 274
248 249 251 254 254 253 253 256 260 262 264 266 265 261 257 255 255 259 267 275 281 283 283 281 279 280 281 283 284 286 289 291 294 296 296 297 297 298 300 300 299 298 297 297 299 301 301 301 300 299 299 299 300 300 299 298 297 296 295 294 293 291 290 289 288 288 287 287 286 286 286 285 285 285 284 283 282 281 279 278 278 277 277 277 276 275
251 253 255 256 255 255 257 262 265 267 266 263 258 253 251 252 256 263 272 280 283 282 280 278 277 279 281 281 282 285 288 291 294 295 297 296 296 298 301 301 299 297 296 298 301 302 302 301 300 299 299 300 301 302 302 301 300 299 297 296 295 293 292 291 290 289 288 288 287 287 287 287 286 286 285 284 283 282 282 282 282 282 282 281 280 278
254 257 259 259 259 261 264 266 267 267 265 259 254 252 252 254 260 270 279 283 283 280 278 277 278 280 280 280 282 285 288 291 293 295 296 294 293 296 301 301 299 297 296 299 301 303 303 301 300 300 301 301 302 303 303 303 302 300 298 297 296 294 293 292 291 290 289 289 289 288 288 287 286 286 285 285 285 286 287 288 287 286 284 283 281 279
257 259 261 262 262 263 265 266 267 266 264 259 256 256 256 259 266 275 281 282 280 277 276 278 279 279 278 279 282 286 289 292 294 295 294 291 292 295 299 300 299 298 298 300 302 303 303 302 301 301 302 302 303 304 304 304 302 300 298 297 295 295 294 294 293 292 291 290 290 289 288 288 288 288 288 288 288 289 289 289 289 287 284 283 281 280
256 259 261 262 263 263 264 265 265 265 264 261 259 259 261 266 272 276 277 275 274 273 275 276 276 275 277 281 285 288 291 293 294 294 293 291 291 294 298 299 299 298 299 301 303 304 303 302 302 302 302 303 304 305 306 306 305 302 299 298 298 297 297 296 295 294 293 292 291 290 290 290 290 290 290 290 290 290 289 288 287 285 284 282 282 281
253 256 259 260 262 262 263 263 264 265 265 264 264 265 268 271 273 273 272 271 271 272 273 272 271 273 278 283 287 289 291 293 293 293 292 290 291 294 298 299 300 300 300 302 304 304 303 303 303 303 302 304 305 308 309 309 307 304 302 301 301 300 299 298 297 296 295 294 293 293 292 292 292 292 292 291 291 290 287 286 285 284 284 283 283 283
247 250 253 255 257 259 260 261 262 263 264 265 266 268 270 271 271 271 269 269 268 267 266 266 270 276 282 285 288 289 290 291 291 290 291 291 291 292 296 299 301 302 302 303 304 304 303 303 302 302 303 305 307 310 311 310 309 307 304 302 300 300 300 300 299 298 297 297 296 296 295 294 294 293 293 293 292 291 288 288 288 288 287 286 285 286
242 244 247 249 252 254 256 258 260 261 262 263 263 263 265 267 267 267 266 265 263 261 261 267 274 281 285 287 288 288 289 288 288 290 292 292 290 290 295 300 303 303 304 304 305 304 303 302 301 302 304 305 306 308 309 309 308 307 305 303 302 303 304 303 302 301 299 298 298 298 297 296 295 294 294 293 293 292 292 292 293 293 293 291 291 293
243 244 246 247 249 252 254 257 258 259 259 259 258 257 257 260 261 261 260 259 258 260 266 273 278 282 285 286 287 287 286 286 288 291 293 292 289 290 297 301 304 305 306 307 307 306 304 302 302 302 304 304 305 305 305 307 309 309 308 308 308 308 309 308 305 303 301 300 299 299 298 297 296 295 295 295 294 293 292 293 294 295 295 294 294 295
245 246 247 247 249 250 252 254 255 255 254 253 251 250 251 254 256 257 255 256 259 266 273 278 281 283 284 285 285 285 285 285 288 291 292 292 292 294 299 302 304 305 307 308 309 308 306 306 305 304 304 304 304 304 305 308 310 312 312 311 311 312 312 310 307 305 303 301 300 299 299 298 297 297 297 297 296 295 293 293 294 294 294 293 292 293
247 247 247 248 249 251 252 253 253 251 250 247 243 242 244 250 254 256 256 259 265 271 276 280 281 281 281 279 279 280 280 283 286 290 292 294 294 296 300 302 303 305 306 307 306 306 306 307 307 306 306 305 304 304 306 308 310 311 312 312 312 312 312 311 309 306 304 303 302 301 300 300 299 299 299 299 299 298 296 296 295 294 293 291 290 292
249 248 248 249 252 253 254 253 252 250 248 245 241 239 242 248 253 257 260 263 267 271 275 278 279 278 276 273 271 272 275 280 286 291 293 295 295 296 299 301 302 304 305 304 301 299 299 302 304 306 307 306 305 305 306 308 309 310 310 310 310 310 312 312 310 308 307 306 305 303 302 302 302 302 302 302 302 301 301 299 298 296 294 291 290 291
251 251 252 254 257 258 255 252 249 248 246 244 242 241 243 247 252 256 259 262 265 269 273 275 276 275 272 270 269 270 274 279 286 292 295 294 295 296 299 301 302 303 304 304 301 297 294 295 299 303 306 306 306 306 306 307 308 308 309 308 308 309 311 312 311 310 309 308 307 306 305 306 306 306 306 307 306 305 304 303 302 299 295 292 290 290
255 256 258 261 263 262 256 250 245 244 244 244 244 244 246 248 251 255 258 262 266 270 272 274 273 271 270 269 270 272 275 280 286 293 296 296 295 296 299 301 302 302 303 303 302 300 296 296 297 301 303 305 305 305 305 306 307 307 308 307 306 307 309 311 311 310 310 309 308 308 309 309 310 310 310 309 309 308 307 306 304 300 294 290 287 288
256 258 261 264 266 264 258 249 244 241 242 244 246 247 249 250 253 256 260 265 270 273 275 274 272 270 270 270 271 274 277 282 289 295 297 297 297 298 300 300 300 301 302 301 301 301 299 298 299 300 302 303 304 305 305 305 306 307 307 307 306 306 308 309 310 310 310 310 310 310 310 310 310 310 310 309 309 309 308 308 306 303 296 289 285 285
253 256 259 263 264 263 258 250 244 241 242 244 247 249 251 253 255 259 264 270 275 277 277 274 272 271 271 272 273 275 279 284 290 294 296 297 298 298 298 298 299 301 301 300 300 300 299 300 300 301 301 301 303 305 306 307 307 307 306 306 307 307 308 309 309 309 309 310 310 310 310 309 309 308 308 309 310 310 311 310 310 309 304 296 287 282
249 252 256 260 262 261 257 251 246 244 244 246 248 251 253 255 258 263 269 276 279 279 277 274 272 271 272 273 275 277 280 284 288 291 293 296 297 297 297 298 300 301 300 299 299 299 299 299 301 302 301 300 301 303 305 308 309 308 307 307 307 308 308 309 309 309 308 308 308 309 308 308 307 307 308 309 311 313 315 316 316 314 311 303 292 283
247 251 255 259 260 258 255 252 249 248 248 249 250 252 254 257 261 267 273 278 280 279 276 274 273 273 274 275 276 277 279 282 284 286 290 293 296 297 297 299 300 300 301 300 299 299 299 298 298 299 300 300 301 302 304 306 307 307 307 308 308 308 308 309 310 309 308 307 307 307 308 308 308 308 309 312 314 316 316 317 317 316 313 307 296 283
247 250 254 257 258 256 254 253 253 254 253 252 252 253 255 258 263 269 275 279 280 278 276 275 275 276 276 277 277 277 278 279 280 283 287 292 296 298 299 299 299 301 303 303 302 300 298 296 295 295 297 299 301 303 304 305 306 306 308 309 310 310 310 310 310 309 308 307 308 308 309 310 311 311 311 313 314 314 313 314 315 316 316 312 304 290
245 249 253 255 256 256 256 257 259 260 258 254 252 252 254 258 264 270 276 278 279 278 276 276 276 277 277 277 277 276 276 277 278 281 285 291 296 299 300 300 300 302 304 304 303 301 299 295 294 295 296 297 299 301 303 304 305 306 308 309 309 309 311 312 311 310 309 309 309 309 310 312 312 312 312 313 313 312 311 312 315 317 318 316 312 304
244 248 253 255 257 258 260 263 264 263 258 252 250 250 253 258 265 271 276 278 278 277 276 275 276 277 277 277 276 276 275 276 277 281 285 291 296 300 301 301 302 303 303 304 303 302 300 297 295 296 296 297 299 300 301 302 303 305 306 306 305 307 310 312 312 312 311 311 310 310 311 312 312 313 313 313 313 313 314 314 316 318 320 318 314 310
244 250 254 257 258 260 262 264 263 258 253 248 248 250 254 260 266 271 275 277 277 276 274 274 274 276 278 278 277 277 277 278 280 283 287 292 296 300 302 303 304 304 304 303 303 302 301 299 297 297 297 298 299 300 300 301 303 304 304 304 304 307 309 311 313 314 312 311 311 312 313 313 313 314 314 315 315 316 317 318 318 318 318 317 314 310
246 251 255 258 259 260 262 261 257 252 248 247 248 252 257 262 267 270 273 274 275 274 273 274 275 278 281 283 282 282 281 282 284 286 289 293 297 300 303 304 305 305 304 303 301 302 303 302 300 299 299 300 300 299 299 300 301 303 304 304 305 306 306 309 313 315 314 313 313 313 314 315 315 316 317 317 317 318 319 319 319 319 318 318 315 311
249 253 255 256 257 257 257 255 253 250 248 248 250 254 258 262 266 269 271 272 273 273 273 275 278 281 283 285 286 287 287 287 287 289 291 294 298 301 303 305 306 306 304 302 301 301 303 303 302 302 303 302 300 298 298 298 300 302 303 304 304 302 301 304 309 312 313 314 314 315 316 317 318 318 318 318 318 318 318 318 319 320 320 320 318 314
249 251 252 252 252 253 253 253 252 251 251 251 253 255 259 262 265 268 269 270 271 272 272 275 278 280 282 283 286 288 291 291 292 293 294 296 299 302 303 304 305 305 305 303 302 301 301 302 303 305 306 304 300 297 297 298 299 301 303 305 305 303 303 305 308 309 310 312 314 315 317 319 319 318 317 317 316 316 316 316 316 317 320 321 321 317
248 248 248 249 250 250 251 252 252 252 251 252 253 256 260 263 266 267 268 268 269 270 272 274 276 277 278 281 285 287 290 293 295 296 297 299 300 303 304 305 306 306 305 305 305 304 303 303 304 306 306 304 300 298 298 300 301 302 303 305 305 305 305 307 308 309 310 311 312 314 317 319 318 317 316 316 315 315 315 314 314 315 318 320 320 319
248 248 249 250 251 251 252 252 251 250 250 251 254 257 261 264 266 266 266 266 265 266 269 271 272 273 275 278 281 284 287 290 294 297 299 300 302 305 306 307 307 307 307 306 306 306 306 307 307 307 304 301 299 300 302 304 304 303 304 306 306 305 305 306 307 309 310 310 310 312 315 316 316 315 314 314 314 313 313 313 314 315 316 318 320 320
249 250 251 252 253 253 252 251 249 249 250 252 256 260 262 265 265 265 264 263 263 263 265 266 268 270 273 276 279 282 285 288 291 295 298 300 302 304 306 307 307 308 308 308 308 309 309 310 310 308 304 300 298 299 303 306 307 306 306 306 305 304 303 304 306 307 308 309 309 311 312 312 312 312 311 311 310 310 310 311 312 313 316 318 319 320
251 252 253 254 253 251 250 248 248 249 251 255 259 263 265 266 265 262 261 261 261 261 262 263 265 268 271 275 279 283 285 287 289 292 294 297 299 301 303 305 306 307 308 309 310 312 314 314 312 308 304 300 298 299 302 305 307 307 306 305 304 302 301 302 304 306 308 308 309 309 309 308 308 308 309 308 307 307 307 308 310 312 314 317 319 319
250 252 253 253 251 249 248 248 250 252 256 260 263 266 268 267 264 261 259 258 258 259 260 262 264 266 269 273 278 281 284 286 287 289 292 295 297 298 300 302 304 305 306 308 310 312 313 313 311 310 307 302 298 297 300 303 305 305 304 303 302 302 301 302 303 306 308 308 308 308 307 306 307 307 308 307 305 305 305 306 308 310 312 315 316 317
246 248 250 250 250 250 251 252 255 258 261 264 266 267 267 265 263 259 257 256 256 257 259 261 263 265 268 272 276 280 282 284 285 287 291 294 296 297 298 299 301 301 302 303 305 306 307 308 309 309 309 307 302 297 297 300 303 304 303 304 304 303 303 303 304 306 307 307 307 307 307 307 307 308 308 307 305 304 304 304 305 307 309 311 312 313